SCP
5 5 5 5 6 5 3 2 2 1 1 2 2 3 3 3 2 2 2 1 0 0 0 0 0 0 0 0 0 0 1 1 1 1 1 1 1 2
5 5 5 6 5 4 3 2 2 2 1 2 2 3 3 3 2 2 2 1 1 0 0 0 0 0 0 0 0 0 0 1 1 1 1 1 1 1
5 6 6 5 4 3 2 2 2 2 2 2 2 2 3 3 3 3 3 2 1 1 0 0 0 0 0 0 0 0 0 0 0 0 0 1 1 1
6 6 6 4 3 2 2 2 2 2 2 2 2 2 3 3 3 3 3 3 2 1 0 0 0 0 0 0 0 0 0 0 0 0 0 0 0 1
6 6 4 3 2 2 2 2 2 2 2 2 2 2 3 3 3 3 3 3 3 2 1 0 0 0 0 0 0 0 0 0 0 0 0 0 0 0
4 4 2 2 2 2 2 2 2 2 2 2 2 2 2 2 2 2 2 3 3 2 2 1 1 0 0 0 0 0 0 0 0 0 0 0 0 0
2 2 2 1 1 1 1 2 2 2 2 2 2 2 2 2 2 2 2 2 2 2 2 2 2 1 1 1 0 0 0 0 0 0 0 0 0 0
2 2 1 1 1 1 1 1 1 2 2 2 2 2 2 2 3 3 2 2 2 2 2 2 2 2 2 1 1 0 0 0 0 0 0 0 0 0
2 2 2 1 1 2 1 1 1 1 1 1 1 1 2 2 3 3 3 2 2 2 2 2 2 2 2 2 1 0 0 0 0 0 0 0 0 0
2 2 2 2 2 3 3 3 2 2 1 1 1 1 1 1 2 2 2 2 2 2 2 2 1 2 2 2 1 1 0 0 0 0 0 0 0 0
2 2 3 3 3 3 3 3 3 3 2 1 1 1 1 1 1 1 1 2 2 2 2 2 1 1 2 2 1 1 0 0 0 0 0 0 0 0
3 3 3 3 2 2 2 3 3 3 3 2 1 1 1 1 1 1 1 1 1 1 1 2 2 1 1 1 1 1 1 1 0 0 0 0 0 0
5 5 5 3 1 1 1 2 2 2 2 2 1 1 1 1 1 1 1 1 1 1 1 1 1 1 1 1 1 1 1 1 1 0 0 0 0 0
7 7 6 3 1 0 0 0 1 1 1 1 1 1 1 1 1 1 1 1 1 1 1 1 1 1 1 1 1 0 1 1 1 1 0 0 0 0
6 6 4 2 1 0 0 0 0 0 0 1 1 1 1 1 1 1 1 1 1 0 0 1 1 0 1 1 1 0 0 0 0 0 0 0 0 1
3 3 2 1 0 0 0 0 0 1 0 1 1 1 1 1 1 1 1 1 0 0 0 0 1 1 1 1 1 0 0 0 0 0 0 0 1 1
2 2 2 1 1 1 1 1 2 1 1 1 1 0 1 1 1 1 1 1 0 0 0 0 1 1 1 1 1 1 0 0 0 0 1 0 0 0
3 2 2 2 2 2 2 3 3 2 1 1 1 0 0 0 0 1 1 0 0 0 0 0 0 1 1 1 1 1 1 1 1 1 1 0 0 0
3 3 2 2 2 3 3 3 3 2 1 1 1 0 0 0 0 0 0 0 0 0 0 0 1 0 0 0 0 0 1 1 1 1 1 0 0 0
4 3 3 3 3 3 3 3 2 1 1 1 1 1 1 0 0 0 0 0 0 0 0 0 1 0 0 1 0 0 0 1 1 1 1 0 0 0
3 3 2 2 2 2 2 1 1 1 1 1 1 1 1 1 0 0 0 0 0 0 0 0 1 1 1 1 1 0 0 0 1 1 1 0 0 0
1 1 1 1 1 1 1 1 1 1 1 1 1 1 1 1 0 0 0 0 0 0 0 1 1 1 1 1 1 1 0 0 0 0 0 0 0 0
1 0 0 1 1 1 1 1 0 1 1 1 0 0 0 1 0 0 0 1 1 0 0 1 1 1 1 1 1 1 1 1 0 0 0 0 0 0
Wind_Speed
2 2 2 2 2 2 2 2 2 2 2 2 1 1 1 2 4 4 4 7 8 8 8 8 8 8 8 7 7 7 6 7 7 8 8 9 9 9
1 2 2 2 2 2 2 2 2 2 2 1 1 1 1 1 3 2 3 7 8 9 9 9 8 8 8 7 7 6 6 6 6 7 8 8 8 8
1 1 2 2 2 1 1 1 1 1 2 2 1 1 1 1 1 1 2 4 4 8 9 9 9 8 8 8 7 6 6 6 6 7 7 8 8 8
1 1 2 2 2 1 1 1 1 1 1 2 1 1 1 1 1 2 2 3 3 7 9 9 9 9 9 9 8 8 7 7 6 7 7 8 8 8
1 1 1 1 1 1 2 1 1 2 1 1 2 1 1 1 1 1 1 1 2 4 6 8 9 9 9 9 9 8 8 8 7 7 7 7 8 8
1 1 1 1 2 2 2 1 1 2 1 1 1 1 1 1 0 1 1 1 1 1 2 4 7 9 9 9 9 8 8 8 7 7 7 7 7 8
1 1 1 0 1 1 2 1 1 1 1 1 1 1 1 1 1 1 1 1 1 1 1 2 2 3 5 7 8 8 8 8 8 8 8 7 8 8
2 1 1 1 1 1 1 1 1 2 1 1 1 1 1 1 1 1 1 1 2 1 0 2 1 2 2 4 7 9 10 9 9 8 7 7 8 8
2 2 3 2 1 1 1 2 2 2 3 2 2 2 1 1 1 2 2 2 3 2 1 2 1 1 1 3 7 9 9 9 9 8 8 8 8 8
2 2 2 1 1 1 1 2 2 2 3 3 3 2 2 1 2 3 3 3 3 2 1 2 2 1 2 1 6 8 9 9 9 9 9 8 8 7
1 1 1 0 1 1 1 2 2 2 3 3 3 3 4 5 3 2 2 2 3 2 1 1 2 1 2 2 3 7 8 9 9 10 9 8 7 6
1 0 2 2 1 1 1 2 2 3 2 3 3 4 5 5 6 4 3 3 3 2 1 1 2 1 1 1 1 2 3 6 7 8 8 8 7 4
1 0 1 1 0 1 2 2 3 3 3 3 2 3 3 2 3 3 3 3 2 3 2 1 1 1 1 1 1 1 2 2 3 4 6 8 8 7
1 0 1 1 1 2 2 3 4 3 2 2 2 1 1 1 1 2 2 3 3 4 3 2 2 2 2 2 2 1 1 1 2 2 2 4 6 8
1 1 1 2 2 2 4 4 3 2 2 2 1 2 2 1 1 1 1 2 3 4 4 3 3 3 2 2 2 2 2 2 2 2 2 2 3 3
2 2 3 4 3 3 2 2 2 2 1 1 2 1 1 1 1 1 1 1 2 3 3 2 2 3 3 3 2 3 2 2 2 2 2 2 3 3
1 2 1 1 1 2 2 2 2 1 1 1 1 1 1 1 2 1 1 2 3 3 2 2 2 2 3 3 2 3 2 2 2 2 2 2 3 3
1 2 2 2 2 2 1 1 1 1 1 1 1 1 1 2 2 2 2 2 2 2 2 2 2 2 2 3 3 3 2 2 2 2 2 2 3 3
2 2 2 2 2 1 1 1 1 1 1 1 1 1 1 2 2 2 2 2 2 2 2 2 2 2 3 3 3 3 3 2 2 2 2 2 3 3
3 3 3 2 2 1 1 1 0 0 1 1 1 1 1 1 2 2 2 2 2 2 2 2 2 2 2 3 3 3 5 3 2 2 2 2 2 2
3 3 3 2 2 1 1 1 1 1 0 1 1 1 1 1 2 2 2 3 3 2 3 2 2 3 3 2 2 2 2 4 4 3 3 2 2 2
2 2 2 1 0 0 0 1 1 1 0 0 1 1 1 1 2 2 2 2 2 3 3 2 2 2 2 2 3 3 2 1 2 3 3 3 2 3
2 1 1 1 1 1 1 1 1 1 1 2 2 2 2 1 2 2 2 2 3 3 3 3 2 2 2 2 3 2 2 2 1 2 2 4 6 7
Wind_Direction
254 262 262 267 258 256 241 240 251 263 260 245 234 214 218 185 191 203 187 196 195 197 203 207 211 212 214 216 217 217 218 220 219 218 218 222 223 224
250 276 274 271 269 259 244 245 246 244 266 271 261 250 244 248 199 216 188 186 196 200 204 206 205 203 204 205 204 206 207 209 209 212 218 222 224 224
258 286 296 293 294 291 276 258 249 231 250 275 259 254 256 268 221 235 195 189 193 200 203 205 203 201 199 199 199 200 201 208 214 217 222 223 221 222
259 288 302 307 306 293 289 277 273 257 241 258 270 260 242 230 213 236 234 206 194 197 203 206 203 202 203 202 201 201 203 207 214 218 222 221 221 222
257 272 296 317 304 293 278 277 287 290 250 237 250 247 227 249 231 249 262 251 226 188 202 210 209 206 206 206 206 206 205 206 209 213 216 218 221 225
265 258 269 284 278 274 271 278 287 291 281 265 253 247 237 259 222 248 280 284 267 199 217 209 205 204 205 206 208 209 207 205 205 210 214 219 222 224
275 264 248 354 298 265 265 263 268 265 267 268 262 271 333 358 301 301 298 293 299 262 252 247 191 191 197 201 207 210 207 204 206 212 216 218 223 227
254 260 227 238 244 244 254 244 253 247 257 273 287 278 296 304 303 295 288 298 291 261 253 280 234 202 190 186 196 200 204 204 207 211 216 220 224 229
245 254 265 254 224 218 227 220 226 237 225 228 254 270 271 283 305 290 275 272 266 258 254 271 264 250 228 186 191 198 201 204 206 213 220 224 229 231
237 254 264 260 249 9 269 254 241 239 233 222 229 249 257 271 258 259 260 279 278 267 230 250 264 269 266 191 191 195 200 204 206 214 221 223 227 232
240 260 259 230 88 44 286 271 273 258 239 235 232 233 231 241 244 261 269 271 285 283 252 247 260 269 262 237 199 202 205 209 210 213 217 219 222 226
213 136 57 58 73 77 269 263 273 280 270 251 241 237 232 230 226 219 237 257 277 279 253 246 267 278 287 269 208 202 211 221 219 214 213 212 207 215
271 263 101 97 66 271 272 262 263 287 284 262 244 226 220 211 202 211 220 237 259 272 269 263 282 270 251 281 287 243 213 203 200 210 213 211 208 206
316 8 109 157 263 277 276 267 267 282 269 268 259 244 232 217 222 222 223 237 239 243 246 235 247 247 255 270 271 251 251 231 207 209 201 203 217 225
342 6 268 230 243 254 253 256 255 257 260 262 266 271 262 236 215 223 238 242 251 258 253 232 231 244 240 245 248 244 253 246 222 213 207 206 210 212
258 276 247 244 248 250 253 240 228 235 245 262 276 279 288 278 253 229 261 265 270 275 260 242 240 241 247 247 230 242 231 215 215 224 219 229 223 210
259 246 245 244 233 225 222 216 212 202 222 259 279 298 305 293 277 262 243 258 265 267 268 262 253 241 234 244 244 231 222 228 213 208 216 234 236 216
231 257 253 250 242 229 215 204 195 191 221 251 265 268 274 279 279 273 261 263 268 274 280 272 267 267 266 261 231 231 228 225 225 217 218 231 243 222
220 241 254 251 249 260 254 238 207 188 217 259 268 273 278 284 287 283 277 277 279 275 267 261 268 260 262 270 262 224 222 235 233 226 229 235 244 233
227 229 237 237 233 253 263 263 256 194 198 262 283 284 284 285 290 291 289 291 286 285 283 272 264 246 249 262 272 256 221 220 215 223 236 250 259 227
237 234 241 242 227 218 232 262 274 260 227 257 279 283 292 298 307 313 312 313 303 293 286 280 271 247 249 250 251 249 218 212 211 209 218 227 248 246
262 263 273 276 282 298 225 244 271 290 302 284 307 308 304 309 311 308 300 299 299 295 295 284 272 256 248 250 262 260 249 224 226 230 236 220 209 223
269 296 303 307 317 339 340 342 350 3 9 352 332 307 301 308 301 292 288 296 300 301 305 299 293 276 269 258 261 268 270 261 227 221 251 237 225 231